STARLINK-34755 (64940 NORAD) Tracking and Keplerian Element Data

This shows tracking and keplerian element data for the satellite.

Feedback or suggestion? Click here.




ElementValue
Catalog64940
NameSTARLINK-34755
Epoch Orbit2346
Epoch Day354.16574247
Epoch Year2025
RAAN216.8739
Inclination97.6038
Eccentricity0.0004131
Argument of Perigee66.8623
Mean Anonmoly293.3036
Mean Motion15.01258714
Decay Rate2.551E-05
L11 64940U 25158J 25354.16574247 .00002551 00000+0 20309-3 0 9998
L22 64940 97.6038 216.8739 0004131 66.8623 293.3036 15.01258714 23469



Live tracking and technical data element details for STARLINK-34755 (NORAD 64940). STARLINK-34755 can be tracked NOW for your location showing map with azimuth and elevation plus other details from your city location.







IsCatalogInMostPopularTable: catalog: 64940, numindb: 13
Update: records affected: 1



GetName: 64940 STARLINK-34755

Hit Count: updated at: Tue, 21 Apr 2026 20:46:39 GMT